User: anonymous   Login
Location: Chacón
(10.5789°N, 66.9317°W)
Time: 20:08:49
(UTC+00:00)
Language:

IUS R/B (1) - Orbit

View from above orbital plane
View from above orbital plane
View from above satellite
View from above satellite

Ground track
Ground track

The orbit data is extracted from the following two-line orbital elements,

1 28160U 04004C   24198.53263745  .00002317  00000-0  25042-2 0  9992
2 28160  28.7368  21.0330 7166204 132.8468 315.0811  2.38358930 45122
Epoch (UTC): 16 July 2024 12:46:59
Eccentricity: 0.7166204
inclination: 28.7368°
perigee height: 330 km
apogee height: 34258 km
right ascension of ascending node: 21.0330°
argument of perigee: 132.8468°
revolutions per day: 2.38358930
mean anomaly at epoch: 315.0811°
orbit number at epoch: 4512

The dashed part of the orbit path shows where the satellite is in the earth's shadow,  

DLR